Time,TemperatureF,DewpointF,PressureIn,WindDirection,WindDirectionDegrees,WindSpeedMPH,WindSpeedGustMPH,Humidity,HourlyPrecipIn,Conditions,Clouds,dailyrainin,SoftwareType,DateUTC
2013-05-17 00:00:00,72.6,64.6,30.08,SE,135,2.0,7.0,76,0.00,,,0.00,VWS V14.01,2013-05-17 04:00:00,
2013-05-17 00:08:00,72.5,65.0,30.08,ESE,112,1.0,7.0,77,0.00,,,0.00,weatherlink.com 1.10,2013-05-17 04:08:00,
2013-05-17 00:15:00,72.4,64.8,30.07,ESE,112,2.0,8.0,77,0.00,,,0.00,VWS V14.01,2013-05-17 04:15:00,
2013-05-17 00:23:00,72.4,65.0,30.07,SSE,157,1.0,8.0,77,0.00,,,0.00,weatherlink.com 1.10,2013-05-17 04:23:00,
2013-05-17 00:30:00,72.2,64.6,30.07,ESE,112,1.0,7.0,77,0.00,,,0.00,VWS V14.01,2013-05-17 04:30:00,
2013-05-17 00:38:00,72.1,65.0,30.07,ESE,117,1.0,5.0,78,0.00,,,0.00,weatherlink.com 1.10,2013-05-17 04:38:00,
2013-05-17 00:45:00,72.0,64.8,30.07,ESE,112,1.0,5.0,78,0.00,,,0.00,VWS V14.01,2013-05-17 04:45:00,
2013-05-17 00:53:00,72.0,65.0,30.07,SSE,147,5.0,6.0,78,0.00,,,0.00,weatherlink.com 1.10,2013-05-17 04:53:00,
2013-05-17 01:00:00,72.0,64.8,30.06,ESE,112,2.0,8.0,78,0.00,,,0.00,VWS V14.01,2013-05-17 05:00:00,
2013-05-17 01:08:00,72.0,65.0,30.06,ESE,120,3.0,5.0,78,0.00,,,0.00,weatherlink.com 1.10,2013-05-17 05:08:00,
2013-05-17 01:15:00,71.8,64.9,30.06,ESE,112,2.0,6.0,79,0.00,,,0.00,VWS V14.01,2013-05-17 05:15:00,
2013-05-17 01:23:00,71.6,64.0,30.06,ESE,106,5.0,5.0,78,0.00,,,0.00,weatherlink.com 1.10,2013-05-17 05:23:00,
2013-05-17 01:30:00,71.5,64.3,30.06,SE,135,2.0,6.0,78,0.00,,,0.00,VWS V14.01,2013-05-17 05:30:00,
2013-05-17 01:38:00,71.5,64.0,30.06,ESE,113,1.0,6.0,78,0.00,,,0.00,weatherlink.com 1.10,2013-05-17 05:38:00,
2013-05-17 01:45:00,71.3,64.1,30.05,ESE,112,1.0,6.0,78,0.00,,,0.00,VWS V14.01,2013-05-17 05:45:00,
2013-05-17 01:53:00,71.1,64.0,30.05,SE,128,4.0,4.0,79,0.00,,,0.00,weatherlink.com 1.10,2013-05-17 05:53:00,
2013-05-17 02:00:00,70.9,64.1,30.05,SE,135,2.0,5.0,79,0.00,,,0.00,VWS V14.01,2013-05-17 06:00:00,
2013-05-17 02:08:00,70.8,64.0,30.06,SE,134,2.0,5.0,80,0.00,,,0.00,weatherlink.com 1.10,2013-05-17 06:08:00,
2013-05-17 02:15:00,70.6,64.1,30.06,SE,135,1.0,5.0,80,0.00,,,0.00,VWS V14.01,2013-05-17 06:15:00,
2013-05-17 02:23:00,70.4,64.0,30.05,SE,138,1.0,5.0,80,0.00,,,0.00,weatherlink.com 1.10,2013-05-17 06:23:00,
2013-05-17 02:30:00,70.3,64.2,30.05,SE,135,1.0,5.0,81,0.00,,,0.00,VWS V14.01,2013-05-17 06:30:00,
2013-05-17 02:38:00,70.2,64.0,30.05,SE,146,0.0,4.0,81,0.00,,,0.00,weatherlink.com 1.10,2013-05-17 06:38:00,
2013-05-17 02:45:00,69.9,63.8,30.05,SE,135,1.0,6.0,81,0.00,,,0.00,VWS V14.01,2013-05-17 06:45:00,
2013-05-17 02:53:00,69.9,64.0,30.05,ESE,118,0.0,3.0,81,0.00,,,0.00,weatherlink.com 1.10,2013-05-17 06:53:00,
2013-05-17 03:00:00,69.7,64.0,30.05,SE,135,1.0,3.0,82,0.00,,,0.00,VWS V14.01,2013-05-17 07:00:00,
2013-05-17 03:08:00,69.6,64.0,30.05,ESE,120,1.0,2.0,82,0.00,,,0.00,weatherlink.com 1.10,2013-05-17 07:08:00,
2013-05-17 03:15:00,69.5,63.8,30.04,ESE,112,0.0,3.0,82,0.00,,,0.00,VWS V14.01,2013-05-17 07:15:00,
2013-05-17 03:23:00,69.5,64.0,30.05,ESE,121,0.0,3.0,82,0.00,,,0.00,weatherlink.com 1.10,2013-05-17 07:23:00,
2013-05-17 03:30:00,69.3,64.3,30.05,ESE,112,0.0,3.0,84,0.00,,,0.00,VWS V14.01,2013-05-17 07:30:00,
2013-05-17 03:38:00,69.2,64.0,30.05,SE,145,0.0,2.0,84,0.00,,,0.00,weatherlink.com 1.10,2013-05-17 07:38:00,
2013-05-17 03:45:00,69.0,64.0,30.05,SE,135,0.0,2.0,84,0.00,,,0.00,VWS V14.01,2013-05-17 07:45:00,
2013-05-17 03:53:00,68.8,64.0,30.05,SE,144,0.0,1.0,85,0.00,,,0.00,weatherlink.com 1.10,2013-05-17 07:53:00,
2013-05-17 04:00:00,68.5,64.2,30.06,SE,135,0.0,1.0,86,0.00,,,0.00,VWS V14.01,2013-05-17 08:00:00,
2013-05-17 04:08:00,68.2,64.0,30.05,SE,144,0.0,0.0,86,0.00,,,0.00,weatherlink.com 1.10,2013-05-17 08:08:00,
2013-05-17 04:15:00,67.9,63.9,30.05,SE,135,0.0,0.0,87,0.00,,,0.00,VWS V14.01,2013-05-17 08:15:00,
2013-05-17 04:24:00,67.6,64.0,30.05,SE,144,0.0,0.0,88,0.00,,,0.00,weatherlink.com 1.10,2013-05-17 08:24:00,
2013-05-17 04:30:00,67.5,64.2,30.06,SE,135,0.0,0.0,89,0.00,,,0.00,VWS V14.01,2013-05-17 08:30:00,
2013-05-17 04:39:00,67.3,64.0,30.05,SE,144,0.0,0.0,88,0.00,,,0.00,weatherlink.com 1.10,2013-05-17 08:39:00,
2013-05-17 04:45:00,67.1,63.8,30.06,SE,135,0.0,0.0,89,0.00,,,0.00,VWS V14.01,2013-05-17 08:45:00,
2013-05-17 04:54:00,66.9,64.0,30.05,SE,144,0.0,0.0,89,0.00,,,0.00,weatherlink.com 1.10,2013-05-17 08:54:00,
2013-05-17 05:00:00,66.6,63.3,30.06,SE,135,0.0,0.0,89,0.00,,,0.00,VWS V14.01,2013-05-17 09:00:00,
2013-05-17 05:09:00,66.3,63.0,30.06,SE,144,0.0,0.0,90,0.00,,,0.00,weatherlink.com 1.10,2013-05-17 09:09:00,
2013-05-17 05:15:00,66.0,63.0,30.06,SE,135,0.0,0.0,90,0.00,,,0.00,VWS V14.01,2013-05-17 09:15:00,
2013-05-17 05:24:00,66.0,64.0,30.06,SE,144,0.0,0.0,92,0.00,,,0.00,weatherlink.com 1.10,2013-05-17 09:24:00,
2013-05-17 05:30:00,66.0,63.6,30.06,SE,135,0.0,0.0,92,0.00,,,0.00,VWS V14.01,2013-05-17 09:30:00,
2013-05-17 05:39:00,66.0,64.0,30.06,SE,144,0.0,0.0,92,0.00,,,0.00,weatherlink.com 1.10,2013-05-17 09:39:00,
2013-05-17 05:45:00,65.9,63.5,30.06,SE,135,0.0,0.0,92,0.00,,,0.00,VWS V14.01,2013-05-17 09:45:00,
2013-05-17 05:54:00,65.7,63.0,30.07,SE,144,0.0,0.0,92,0.00,,,0.00,weatherlink.com 1.10,2013-05-17 09:54:00,
2013-05-17 06:00:00,65.6,63.2,30.07,SE,135,0.0,0.0,92,0.00,,,0.00,VWS V14.01,2013-05-17 10:00:00,
2013-05-17 06:09:00,65.4,63.0,30.07,SE,144,0.0,0.0,93,0.00,,,0.00,weatherlink.com 1.10,2013-05-17 10:09:00,
2013-05-17 06:15:00,65.3,63.2,30.07,SE,135,0.0,0.0,93,0.00,,,0.00,VWS V14.01,2013-05-17 10:15:00,
2013-05-17 06:24:00,65.2,63.0,30.07,SE,144,0.0,0.0,93,0.00,,,0.00,weatherlink.com 1.10,2013-05-17 10:24:00,
2013-05-17 06:30:00,65.1,63.0,30.08,SE,135,0.0,0.0,93,0.00,,,0.00,VWS V14.01,2013-05-17 10:30:00,
2013-05-17 06:39:00,65.0,63.0,30.08,SE,144,0.0,0.0,94,0.00,,,0.00,weatherlink.com 1.10,2013-05-17 10:39:00,
2013-05-17 06:45:00,65.0,63.2,30.08,SE,135,0.0,0.0,94,0.00,,,0.00,VWS V14.01,2013-05-17 10:45:00,
2013-05-17 06:54:00,65.0,63.0,30.08,SE,144,0.0,0.0,94,0.00,,,0.00,weatherlink.com 1.10,2013-05-17 10:54:00,
2013-05-17 07:00:00,65.0,63.2,30.08,SE,135,0.0,0.0,94,0.00,,,0.00,VWS V14.01,2013-05-17 11:00:00,
2013-05-17 07:09:00,65.0,63.0,30.08,SE,144,0.0,0.0,94,0.00,,,0.00,weatherlink.com 1.10,2013-05-17 11:09:00,
2013-05-17 07:15:00,65.1,63.3,30.08,SE,135,0.0,0.0,94,0.00,,,0.00,VWS V14.01,2013-05-17 11:15:00,
2013-05-17 07:24:00,65.2,64.0,30.08,SE,144,0.0,0.0,94,0.00,,,0.00,weatherlink.com 1.10,2013-05-17 11:24:00,
2013-05-17 07:30:00,65.5,63.7,30.08,SE,135,0.0,0.0,94,0.00,,,0.00,VWS V14.01,2013-05-17 11:30:00,
2013-05-17 07:39:00,66.0,64.0,30.09,SE,144,0.0,0.0,93,0.00,,,0.00,weatherlink.com 1.10,2013-05-17 11:39:00,
2013-05-17 07:45:00,66.5,64.4,30.09,SE,135,0.0,1.0,93,0.00,,,0.00,VWS V14.01,2013-05-17 11:45:00,
2013-05-17 07:54:00,67.3,65.0,30.09,SE,144,0.0,1.0,91,0.00,,,0.00,weatherlink.com 1.10,2013-05-17 11:54:00,
2013-05-17 08:00:00,67.9,64.9,30.09,SE,135,0.0,1.0,90,0.00,,,0.00,VWS V14.01,2013-05-17 12:00:00,
2013-05-17 08:09:00,68.5,65.0,30.09,SE,143,3.0,4.0,89,0.00,,,0.00,weatherlink.com 1.10,2013-05-17 12:09:00,
2013-05-17 08:15:00,69.5,65.5,30.10,SE,135,1.0,4.0,87,0.00,,,0.00,VWS V14.01,2013-05-17 12:15:00,
2013-05-17 08:24:00,70.6,65.0,30.10,SE,138,1.0,5.0,83,0.00,,,0.00,weatherlink.com 1.10,2013-05-17 12:24:00,
2013-05-17 08:30:00,71.4,66.0,30.10,SE,135,1.0,5.0,83,0.00,,,0.00,VWS V14.01,2013-05-17 12:30:00,
2013-05-17 08:39:00,72.4,66.0,30.11,SE,146,2.0,4.0,80,0.00,,,0.00,weatherlink.com 1.10,2013-05-17 12:39:00,
2013-05-17 08:45:00,73.1,65.8,30.10,SE,135,1.0,4.0,78,0.00,,,0.00,VWS V14.01,2013-05-17 12:45:00,
2013-05-17 08:54:00,73.9,66.0,30.11,SE,131,0.0,4.0,77,0.00,,,0.00,weatherlink.com 1.10,2013-05-17 12:54:00,
2013-05-17 09:00:00,74.4,66.3,30.11,ESE,112,1.0,3.0,76,0.00,,,0.00,VWS V14.01,2013-05-17 13:00:00,
2013-05-17 09:09:00,75.2,67.0,30.11,SW,223,2.0,6.0,75,0.00,,,0.00,weatherlink.com 1.10,2013-05-17 13:09:00,
2013-05-17 09:15:00,75.3,66.8,30.11,SSW,202,1.0,6.0,75,0.00,,,0.00,VWS V14.01,2013-05-17 13:15:00,
2013-05-17 09:24:00,75.6,67.0,30.11,SSE,167,1.0,4.0,74,0.00,,,0.00,weatherlink.com 1.10,2013-05-17 13:24:00,
2013-05-17 09:30:00,76.0,67.1,30.11,SE,135,1.0,4.0,74,0.00,,,0.00,VWS V14.01,2013-05-17 13:30:00,
2013-05-17 09:39:00,76.3,67.0,30.11,ESE,115,2.0,4.0,73,0.00,,,0.00,weatherlink.com 1.10,2013-05-17 13:39:00,
2013-05-17 09:45:00,76.7,67.0,30.11,ESE,112,2.0,5.0,72,0.00,,,0.00,VWS V14.01,2013-05-17 13:45:00,
2013-05-17 09:54:00,77.1,67.0,30.11,South,183,3.0,4.0,72,0.00,,,0.00,weatherlink.com 1.10,2013-05-17 13:54:00,
2013-05-17 10:00:00,77.4,67.7,30.11,SE,135,2.0,5.0,72,0.00,,,0.00,VWS V14.01,2013-05-17 14:00:00,
2013-05-17 10:09:00,78.2,67.0,30.11,South,189,5.0,5.0,69,0.00,,,0.00,weatherlink.com 1.10,2013-05-17 14:09:00,
2013-05-17 10:15:00,78.2,67.2,30.11,ESE,112,2.0,6.0,69,0.00,,,0.00,VWS V14.01,2013-05-17 14:15:00,
2013-05-17 10:25:00,78.5,67.0,30.11,SE,128,3.0,5.0,68,0.00,,,0.00,weatherlink.com 1.10,2013-05-17 14:25:00,
2013-05-17 10:30:00,78.6,67.2,30.11,ESE,112,2.0,5.0,68,0.00,,,0.00,VWS V14.01,2013-05-17 14:30:00,
2013-05-17 10:40:00,78.7,67.0,30.12,South,178,1.0,6.0,67,0.00,,,0.00,weatherlink.com 1.10,2013-05-17 14:40:00,
2013-05-17 10:45:00,79.3,66.5,30.12,SSW,202,2.0,7.0,65,0.00,,,0.00,VWS V14.01,2013-05-17 14:45:00,
2013-05-17 10:55:00,79.8,67.0,30.12,SW,219,3.0,4.0,64,0.00,,,0.00,weatherlink.com 1.10,2013-05-17 14:55:00,
2013-05-17 11:00:00,80.3,67.0,30.12,SW,225,1.0,5.0,64,0.00,,,0.00,VWS V14.01,2013-05-17 15:00:00,
2013-05-17 11:10:00,81.0,66.0,30.12,SW,229,3.0,5.0,61,0.00,,,0.00,weatherlink.com 1.10,2013-05-17 15:10:00,
2013-05-17 11:15:00,80.4,65.3,30.12,SW,225,2.0,8.0,60,0.00,,,0.00,VWS V14.01,2013-05-17 15:15:00,
2013-05-17 11:25:00,80.5,66.0,30.12,SSE,155,2.0,7.0,61,0.00,,,0.00,weatherlink.com 1.10,2013-05-17 15:25:00,
2013-05-17 11:30:00,81.4,65.2,30.12,SSW,202,2.0,7.0,58,0.00,,,0.00,VWS V14.01,2013-05-17 15:30:00,
2013-05-17 11:40:00,81.8,62.0,30.12,SSW,205,4.0,6.0,51,0.00,,,0.00,weatherlink.com 1.10,2013-05-17 15:40:00,
2013-05-17 11:45:00,81.4,62.6,30.11,SSW,202,3.0,7.0,53,0.00,,,0.00,VWS V14.01,2013-05-17 15:45:00,
2013-05-17 11:55:00,81.8,65.0,30.11,SW,223,3.0,6.0,56,0.00,,,0.00,weatherlink.com 1.10,2013-05-17 15:55:00,
2013-05-17 12:00:00,82.7,63.8,30.11,SSW,202,2.0,6.0,53,0.00,,,0.00,VWS V14.01,2013-05-17 16:00:00,
2013-05-17 12:10:00,83.3,63.0,30.11,South,184,5.0,7.0,51,0.00,,,0.00,weatherlink.com 1.10,2013-05-17 16:10:00,
2013-05-17 12:15:00,83.3,63.9,30.11,ESE,112,2.0,7.0,52,0.00,,,0.00,VWS V14.01,2013-05-17 16:15:00,
2013-05-17 12:25:00,82.7,63.0,30.11,SSE,161,3.0,7.0,52,0.00,,,0.00,weatherlink.com 1.10,2013-05-17 16:25:00,
2013-05-17 12:30:00,83.6,64.1,30.10,SSW,202,2.0,7.0,52,0.00,,,0.00,VWS V14.01,2013-05-17 16:30:00,
2013-05-17 12:40:00,83.8,63.0,30.10,SE,139,1.0,6.0,50,0.00,,,0.00,weatherlink.com 1.10,2013-05-17 16:40:00,
2013-05-17 12:45:00,83.6,63.0,30.10,ESE,112,2.0,6.0,50,0.00,,,0.00,VWS V14.01,2013-05-17 16:45:00,
2013-05-17 12:55:00,83.9,63.0,30.10,SSW,203,3.0,7.0,50,0.00,,,0.00,weatherlink.com 1.10,2013-05-17 16:55:00,
2013-05-17 13:00:00,83.6,64.1,30.09,SSW,202,2.0,7.0,52,0.00,,,0.00,VWS V14.01,2013-05-17 17:00:00,
2013-05-17 13:10:00,84.2,64.0,30.09,SE,132,2.0,7.0,50,0.00,,,0.00,weatherlink.com 1.10,2013-05-17 17:10:00,
2013-05-17 13:15:00,84.3,63.1,30.09,SSW,202,3.0,8.0,49,0.00,,,0.00,VWS V14.01,2013-05-17 17:15:00,
2013-05-17 13:30:00,84.7,64.6,30.09,SSW,202,3.0,9.0,51,0.00,,,0.00,VWS V14.01,2013-05-17 17:30:00,
2013-05-17 13:40:00,85.2,64.0,30.08,South,188,2.0,9.0,49,0.00,,,0.00,weatherlink.com 1.10,2013-05-17 17:40:00,
2013-05-17 13:45:00,84.8,63.0,30.08,SSW,202,3.0,9.0,48,0.00,,,0.00,VWS V14.01,2013-05-17 17:45:00,
2013-05-17 13:55:00,85.4,65.0,30.08,SE,132,0.0,6.0,51,0.00,,,0.00,weatherlink.com 1.10,2013-05-17 17:55:00,
2013-05-17 14:00:00,86.0,64.6,30.08,South,180,2.0,6.0,49,0.00,,,0.00,VWS V14.01,2013-05-17 18:00:00,
2013-05-17 14:10:00,86.0,65.0,30.08,South,184,5.0,9.0,49,0.00,,,0.00,weatherlink.com 1.10,2013-05-17 18:10:00,
2013-05-17 14:15:00,85.9,64.5,30.08,SSW,202,3.0,9.0,49,0.00,,,0.00,VWS V14.01,2013-05-17 18:15:00,
2013-05-17 14:25:00,86.5,64.0,30.07,SSW,205,3.0,8.0,47,0.00,,,0.00,weatherlink.com 1.10,2013-05-17 18:25:00,
2013-05-17 14:30:00,86.8,64.8,30.07,SSW,202,3.0,8.0,48,0.00,,,0.00,VWS V14.01,2013-05-17 18:30:00,
2013-05-17 14:40:00,87.7,66.0,30.07,SSW,211,2.0,7.0,48,0.00,,,0.00,weatherlink.com 1.10,2013-05-17 18:40:00,
2013-05-17 14:45:00,87.3,64.0,30.07,ESE,112,2.0,9.0,46,0.00,,,0.00,VWS V14.01,2013-05-17 18:45:00,
2013-05-17 14:55:00,87.0,64.0,30.07,SSW,202,2.0,9.0,46,0.00,,,0.00,weatherlink.com 1.10,2013-05-17 18:55:00,
2013-05-17 15:00:00,87.8,64.5,30.07,SSW,202,2.0,9.0,46,0.00,,,0.00,VWS V14.01,2013-05-17 19:00:00,
2013-05-17 15:10:00,87.7,64.0,30.06,SSW,203,0.0,6.0,46,0.00,,,0.00,weatherlink.com 1.10,2013-05-17 19:10:00,
2013-05-17 15:15:00,87.4,63.5,30.06,SSW,202,3.0,8.0,45,0.00,,,0.00,VWS V14.01,2013-05-17 19:15:00,
2013-05-17 15:25:00,88.1,64.0,30.06,SW,224,1.0,7.0,45,0.00,,,0.00,weatherlink.com 1.10,2013-05-17 19:25:00,
2013-05-17 15:30:00,87.9,63.9,30.06,South,180,2.0,7.0,45,0.00,,,0.00,VWS V14.01,2013-05-17 19:30:00,
2013-05-17 15:40:00,87.7,64.0,30.05,WSW,246,5.0,7.0,45,0.00,,,0.00,weatherlink.com 1.10,2013-05-17 19:40:00,
2013-05-17 15:45:00,87.6,63.7,30.05,SSW,202,3.0,8.0,45,0.00,,,0.00,VWS V14.01,2013-05-17 19:45:00,
2013-05-17 15:55:00,86.9,64.0,30.05,ESE,108,0.0,10.0,47,0.00,,,0.00,weatherlink.com 1.10,2013-05-17 19:55:00,
2013-05-17 16:00:00,86.8,63.6,30.05,SW,225,3.0,10.0,46,0.00,,,0.00,VWS V14.01,2013-05-17 20:00:00,
2013-05-17 16:10:00,87.4,64.0,30.04,SSW,197,5.0,7.0,45,0.00,,,0.00,weatherlink.com 1.10,2013-05-17 20:10:00,
2013-05-17 16:15:00,87.4,64.1,30.04,SW,225,3.0,8.0,46,0.00,,,0.00,VWS V14.01,2013-05-17 20:15:00,
2013-05-17 16:25:00,87.8,64.0,30.04,SE,132,3.0,8.0,45,0.00,,,0.00,weatherlink.com 1.10,2013-05-17 20:25:00,
2013-05-17 16:30:00,88.2,64.2,30.04,South,180,3.0,9.0,45,0.00,,,0.00,VWS V14.01,2013-05-17 20:30:00,
2013-05-17 16:41:00,87.9,63.0,30.04,SW,225,4.0,9.0,44,0.00,,,0.00,weatherlink.com 1.10,2013-05-17 20:41:00,
2013-05-17 16:45:00,88.4,64.4,30.04,SW,225,2.0,9.0,45,0.00,,,0.00,VWS V14.01,2013-05-17 20:45:00,
2013-05-17 16:56:00,89.3,64.0,30.04,SW,222,2.0,4.0,43,0.00,,,0.00,weatherlink.com 1.10,2013-05-17 20:56:00,
2013-05-17 17:00:00,89.2,63.1,30.04,SW,225,2.0,8.0,42,0.00,,,0.00,VWS V14.01,2013-05-17 21:00:00,
2013-05-17 17:11:00,88.4,63.0,30.04,SE,134,3.0,5.0,43,0.00,,,0.00,weatherlink.com 1.10,2013-05-17 21:11:00,
2013-05-17 17:15:00,88.0,63.4,30.03,SE,135,1.0,5.0,44,0.00,,,0.00,VWS V14.01,2013-05-17 21:15:00,
2013-05-17 17:26:00,88.0,64.0,30.04,ESE,112,2.0,5.0,45,0.00,,,0.00,weatherlink.com 1.10,2013-05-17 21:26:00,
2013-05-17 17:30:00,87.8,63.2,30.04,ESE,112,2.0,7.0,44,0.00,,,0.00,VWS V14.01,2013-05-17 21:30:00,
2013-05-17 17:41:00,88.0,69.0,30.04,ESE,111,1.0,6.0,54,0.00,,,0.00,weatherlink.com 1.10,2013-05-17 21:41:00,
2013-05-17 17:45:00,87.1,69.0,30.04,SE,135,3.0,11.0,55,0.00,,,0.00,VWS V14.01,2013-05-17 21:45:00,
2013-05-17 17:56:00,85.2,69.0,30.04,ENE,61,7.0,12.0,58,0.00,,,0.00,weatherlink.com 1.10,2013-05-17 21:56:00,
2013-05-17 18:00:00,84.2,68.3,30.04,ESE,112,4.0,12.0,59,0.00,,,0.00,VWS V14.01,2013-05-17 22:00:00,
2013-05-17 18:11:00,84.2,69.0,30.04,South,185,1.0,10.0,60,0.00,,,0.00,weatherlink.com 1.10,2013-05-17 22:11:00,
2013-05-17 18:15:00,84.1,68.7,30.04,East,90,4.0,10.0,60,0.00,,,0.00,VWS V14.01,2013-05-17 22:15:00,
2013-05-17 18:26:00,83.8,69.0,30.04,ESE,109,3.0,9.0,61,0.00,,,0.00,weatherlink.com 1.10,2013-05-17 22:26:00,
2013-05-17 18:30:00,83.7,68.8,30.04,ESE,112,3.0,9.0,61,0.00,,,0.00,VWS V14.01,2013-05-17 22:30:00,
2013-05-17 18:41:00,83.6,69.0,30.04,East,91,5.0,9.0,62,0.00,,,0.00,weatherlink.com 1.10,2013-05-17 22:41:00,
2013-05-17 18:45:00,83.3,68.5,30.05,ESE,112,3.0,9.0,61,0.00,,,0.00,VWS V14.01,2013-05-17 22:45:00,
2013-05-17 18:56:00,83.2,68.0,30.05,East,101,4.0,11.0,61,0.00,,,0.00,weatherlink.com 1.10,2013-05-17 22:56:00,
2013-05-17 19:00:00,82.7,68.4,30.05,ESE,112,3.0,11.0,62,0.00,,,0.00,VWS V14.01,2013-05-17 23:00:00,
2013-05-17 19:11:00,82.1,68.0,30.05,ESE,120,2.0,13.0,62,0.00,,,0.00,weatherlink.com 1.10,2013-05-17 23:11:00,
2013-05-17 19:15:00,81.8,68.0,30.05,ESE,112,4.0,13.0,63,0.00,,,0.00,VWS V14.01,2013-05-17 23:15:00,
2013-05-17 19:26:00,81.6,68.0,30.05,ESE,113,2.0,9.0,64,0.00,,,0.00,weatherlink.com 1.10,2013-05-17 23:26:00,
2013-05-17 19:30:00,81.3,68.4,30.05,ESE,112,3.0,9.0,65,0.00,,,0.00,VWS V14.01,2013-05-17 23:30:00,
2013-05-17 19:41:00,80.7,68.0,30.06,East,101,1.0,12.0,66,0.00,,,0.00,weatherlink.com 1.10,2013-05-17 23:41:00,
2013-05-17 19:45:00,80.4,68.0,30.06,ESE,112,4.0,12.0,66,0.00,,,0.00,VWS V14.01,2013-05-17 23:45:00,
2013-05-17 19:56:00,80.1,68.0,30.06,ESE,105,2.0,9.0,67,0.00,,,0.00,weatherlink.com 1.10,2013-05-17 23:56:00,
2013-05-17 20:00:00,79.8,68.3,30.06,ESE,112,4.0,12.0,68,0.00,,,0.00,VWS V14.01,2013-05-18 00:00:00,
2013-05-17 20:11:00,79.4,68.0,30.06,ESE,115,4.0,11.0,69,0.00,,,0.00,weatherlink.com 1.10,2013-05-18 00:11:00,
2013-05-17 20:15:00,79.2,68.2,30.06,ESE,112,3.0,11.0,69,0.00,,,0.00,VWS V14.01,2013-05-18 00:15:00,
2013-05-17 20:26:00,78.8,68.0,30.06,ESE,120,5.0,6.0,70,0.00,,,0.00,weatherlink.com 1.10,2013-05-18 00:26:00,
2013-05-17 20:30:00,78.6,68.0,30.06,ESE,112,3.0,10.0,70,0.00,,,0.00,VWS V14.01,2013-05-18 00:30:00,
2013-05-17 20:41:00,78.2,68.0,30.07,ESE,121,4.0,9.0,71,0.00,,,0.00,weatherlink.com 1.10,2013-05-18 00:41:00,
2013-05-17 20:45:00,78.0,68.2,30.07,ESE,112,3.0,9.0,72,0.00,,,0.00,VWS V14.01,2013-05-18 00:45:00,
2013-05-17 20:56:00,77.6,68.0,30.07,ESE,106,4.0,8.0,72,0.00,,,0.00,weatherlink.com 1.10,2013-05-18 00:56:00,
2013-05-17 21:00:00,77.4,67.7,30.08,ESE,112,3.0,8.0,72,0.00,,,0.00,VWS V14.01,2013-05-18 01:00:00,
2013-05-17 21:11:00,77.2,68.0,30.08,ESE,109,2.0,9.0,74,0.00,,,0.00,weatherlink.com 1.10,2013-05-18 01:11:00,
2013-05-17 21:15:00,77.1,68.2,30.08,ESE,112,3.0,9.0,74,0.00,,,0.00,VWS V14.01,2013-05-18 01:15:00,
2013-05-17 21:26:00,76.8,68.0,30.08,ESE,111,1.0,8.0,75,0.00,,,0.00,weatherlink.com 1.10,2013-05-18 01:26:00,
2013-05-17 21:30:00,76.7,68.2,30.08,ESE,112,3.0,10.0,75,0.00,,,0.00,VWS V14.01,2013-05-18 01:30:00,
2013-05-17 21:41:00,76.4,68.0,30.08,ESE,107,5.0,8.0,76,0.00,,,0.00,weatherlink.com 1.10,2013-05-18 01:41:00,
2013-05-17 21:45:00,76.2,68.5,30.08,ESE,112,4.0,10.0,77,0.00,,,0.00,VWS V14.01,2013-05-18 01:45:00,
2013-05-17 21:56:00,75.8,69.0,30.09,ESE,117,2.0,9.0,78,0.00,,,0.00,weatherlink.com 1.10,2013-05-18 01:56:00,
2013-05-17 22:00:00,75.7,68.4,30.09,ESE,112,3.0,9.0,78,0.00,,,0.00,VWS V14.01,2013-05-18 02:00:00,
2013-05-17 22:11:00,75.5,69.0,30.09,SE,124,5.0,9.0,79,0.00,,,0.00,weatherlink.com 1.10,2013-05-18 02:11:00,
2013-05-17 22:15:00,75.4,68.4,30.09,ESE,112,3.0,9.0,79,0.00,,,0.00,VWS V14.01,2013-05-18 02:15:00,
2013-05-17 22:26:00,75.3,69.0,30.09,SE,124,3.0,9.0,80,0.00,,,0.00,weatherlink.com 1.10,2013-05-18 02:26:00,
2013-05-17 22:30:00,75.3,68.7,30.09,ESE,112,2.0,9.0,80,0.00,,,0.00,VWS V14.01,2013-05-18 02:30:00,
2013-05-17 22:41:00,75.1,69.0,30.10,ESE,113,2.0,5.0,81,0.00,,,0.00,weatherlink.com 1.10,2013-05-18 02:41:00,
2013-05-17 22:45:00,75.1,68.9,30.10,ESE,112,2.0,6.0,81,0.00,,,0.00,VWS V14.01,2013-05-18 02:45:00,
2013-05-17 22:56:00,74.9,69.0,30.09,East,96,0.0,7.0,81,0.00,,,0.00,weatherlink.com 1.10,2013-05-18 02:56:00,
2013-05-17 23:00:00,74.8,68.9,30.10,SE,135,2.0,7.0,82,0.00,,,0.00,VWS V14.01,2013-05-18 03:00:00,
2013-05-17 23:11:00,74.7,69.0,30.10,SSE,153,2.0,6.0,82,0.00,,,0.00,weatherlink.com 1.10,2013-05-18 03:11:00,
2013-05-17 23:15:00,74.7,69.2,30.10,SE,135,2.0,6.0,83,0.00,,,0.00,VWS V14.01,2013-05-18 03:15:00,
2013-05-17 23:26:00,74.5,69.0,30.10,ESE,113,0.0,5.0,82,0.00,,,0.00,weatherlink.com 1.10,2013-05-18 03:26:00,
2013-05-17 23:30:00,74.4,68.9,30.10,ESE,112,2.0,5.0,83,0.00,,,0.00,VWS V14.01,2013-05-18 03:30:00,
2013-05-17 23:41:00,74.2,69.0,30.10,SE,125,3.0,6.0,83,0.00,,,0.00,weatherlink.com 1.10,2013-05-18 03:41:00,
2013-05-17 23:45:00,74.1,68.6,30.10,ESE,112,2.0,7.0,83,0.00,,,0.00,VWS V14.01,2013-05-18 03:45:00,
2013-05-17 23:56:00,74.0,69.0,30.10,East,85,2.0,6.0,83,0.00,,,0.00,weatherlink.com 1.10,2013-05-18 03:56:00,